Time,TemperatureF,DewpointF,PressureIn,WindDirection,WindDirectionDegrees,WindSpeedMPH,WindSpeedGustMPH,Humidity,HourlyPrecipIn,Conditions,Clouds,dailyrainin,SoftwareType,DateUTC
2013-06-09 00:00:00,64.0,62.0,30.06,WSW,240,0.0,5.0,93,-99.99,,,-99.99,,2013-06-09 04:00:00,
2013-06-09 00:23:00,64.0,62.0,30.06,WSW,240,0.0,5.0,93,-99.99,,,-99.99,,2013-06-09 04:23:00,
2013-06-09 00:33:00,64.0,62.0,30.06,WSW,240,0.0,5.0,93,-99.99,,,-99.99,,2013-06-09 04:33:00,
2013-06-09 00:43:00,64.0,62.0,30.06,WSW,240,0.0,5.0,93,-99.99,,,-99.99,,2013-06-09 04:43:00,
2013-06-09 00:53:00,64.0,62.0,30.06,WSW,240,0.0,5.0,93,-99.99,,,-99.99,,2013-06-09 04:53:00,
2013-06-09 01:00:00,63.0,61.0,30.09,SSW,212,0.0,2.0,94,-99.99,,,-99.99,,2013-06-09 05:00:00,
2013-06-09 01:22:00,63.0,61.0,30.09,SSW,212,0.0,2.0,94,-99.99,,,-99.99,,2013-06-09 05:22:00,
2013-06-09 01:32:00,63.0,61.0,30.09,SSW,212,0.0,2.0,94,-99.99,,,-99.99,,2013-06-09 05:32:00,
2013-06-09 01:42:00,63.0,61.0,30.09,SSW,212,0.0,2.0,94,-99.99,,,-99.99,,2013-06-09 05:42:00,
2013-06-09 01:52:00,63.0,61.0,30.09,SSW,212,0.0,2.0,94,-99.99,,,-99.99,,2013-06-09 05:52:00,
2013-06-09 02:00:00,62.0,60.0,30.09,WSW,239,0.0,3.0,94,-99.99,,,-99.99,,2013-06-09 06:00:00,
2013-06-09 02:32:00,62.0,60.0,30.09,WSW,239,0.0,3.0,94,-99.99,,,-99.99,,2013-06-09 06:32:00,
2013-06-09 02:42:00,62.0,60.0,30.09,WSW,239,0.0,3.0,94,-99.99,,,-99.99,,2013-06-09 06:42:00,
2013-06-09 02:52:00,62.0,60.0,30.09,WSW,239,0.0,3.0,94,-99.99,,,-99.99,,2013-06-09 06:52:00,
2013-06-09 03:00:00,61.0,59.0,30.09,NNW,327,1.0,3.0,94,-99.99,,,-99.99,,2013-06-09 07:00:00,
2013-06-09 03:32:00,61.0,59.0,30.09,NNW,327,1.0,3.0,94,-99.99,,,-99.99,,2013-06-09 07:32:00,
2013-06-09 03:42:00,61.0,59.0,30.09,NNW,327,1.0,3.0,94,-99.99,,,-99.99,,2013-06-09 07:42:00,
2013-06-09 03:53:00,61.0,59.0,30.09,NNW,327,1.0,3.0,94,-99.99,,,-99.99,,2013-06-09 07:53:00,
2013-06-09 04:00:00,60.0,58.0,30.09,SSW,198,0.0,1.0,94,-99.99,,,-99.99,,2013-06-09 08:00:00,
2013-06-09 04:22:00,60.0,58.0,30.09,SSW,198,0.0,1.0,94,-99.99,,,-99.99,,2013-06-09 08:22:00,
2013-06-09 04:32:00,60.0,58.0,30.09,SSW,198,0.0,1.0,94,-99.99,,,-99.99,,2013-06-09 08:32:00,
2013-06-09 04:42:00,60.0,58.0,30.09,SSW,198,0.0,1.0,94,-99.99,,,-99.99,,2013-06-09 08:42:00,
2013-06-09 04:53:00,60.0,58.0,30.09,SSW,198,0.0,1.0,94,-99.99,,,-99.99,,2013-06-09 08:53:00,
2013-06-09 05:00:00,60.0,58.0,30.12,SSW,205,0.0,0.0,94,-99.99,,,-99.99,,2013-06-09 09:00:00,
2013-06-09 05:22:00,60.0,58.0,30.12,SSW,205,0.0,0.0,94,-99.99,,,-99.99,,2013-06-09 09:22:00,
2013-06-09 05:33:00,60.0,58.0,30.12,SSW,205,0.0,0.0,94,-99.99,,,-99.99,,2013-06-09 09:33:00,
2013-06-09 05:43:00,60.0,58.0,30.12,SSW,205,0.0,0.0,94,-99.99,,,-99.99,,2013-06-09 09:43:00,
2013-06-09 05:53:00,60.0,58.0,30.12,SSW,205,0.0,0.0,94,-99.99,,,-99.99,,2013-06-09 09:53:00,
2013-06-09 06:00:00,60.0,59.0,30.15,SSW,205,0.0,4.0,94,-99.99,,,-99.99,,2013-06-09 10:00:00,
2013-06-09 06:23:00,60.0,59.0,30.15,SSW,205,0.0,4.0,94,-99.99,,,-99.99,,2013-06-09 10:23:00,
2013-06-09 06:32:00,60.0,59.0,30.15,SSW,205,0.0,4.0,94,-99.99,,,-99.99,,2013-06-09 10:32:00,
2013-06-09 06:43:00,60.0,59.0,30.15,SSW,205,0.0,4.0,94,-99.99,,,-99.99,,2013-06-09 10:43:00,
2013-06-09 06:52:00,60.0,59.0,30.15,SSW,205,0.0,4.0,94,-99.99,,,-99.99,,2013-06-09 10:52:00,
2013-06-09 07:00:00,62.0,61.0,30.15,South,188,0.0,2.0,94,-99.99,,,-99.99,,2013-06-09 11:00:00,
2013-06-09 07:22:00,62.0,61.0,30.15,South,188,0.0,2.0,94,-99.99,,,-99.99,,2013-06-09 11:22:00,
2013-06-09 07:32:00,62.0,61.0,30.15,South,188,0.0,2.0,94,-99.99,,,-99.99,,2013-06-09 11:32:00,
2013-06-09 07:42:00,62.0,61.0,30.15,South,188,0.0,2.0,94,-99.99,,,-99.99,,2013-06-09 11:42:00,
2013-06-09 07:53:00,62.0,61.0,30.15,South,188,0.0,2.0,94,-99.99,,,-99.99,,2013-06-09 11:53:00,
2013-06-09 08:00:00,66.0,61.0,30.18,SSW,209,0.0,2.0,84,-99.99,,,-99.99,,2013-06-09 12:00:00,
2013-06-09 08:22:00,66.0,61.0,30.18,SSW,209,0.0,2.0,84,-99.99,,,-99.99,,2013-06-09 12:22:00,
2013-06-09 08:32:00,66.0,61.0,30.18,SSW,209,0.0,2.0,84,-99.99,,,-99.99,,2013-06-09 12:32:00,
2013-06-09 08:42:00,66.0,61.0,30.18,SSW,209,0.0,2.0,84,-99.99,,,-99.99,,2013-06-09 12:42:00,
2013-06-09 08:53:00,66.0,61.0,30.18,SSW,209,0.0,2.0,84,-99.99,,,-99.99,,2013-06-09 12:53:00,
2013-06-09 09:00:00,70.0,60.0,30.18,NW,306,0.0,2.0,71,-99.99,,,-99.99,,2013-06-09 13:00:00,
2013-06-09 09:23:00,70.0,60.0,30.18,NW,306,0.0,2.0,71,-99.99,,,-99.99,,2013-06-09 13:23:00,
2013-06-09 09:32:00,70.0,60.0,30.18,NW,306,0.0,2.0,71,-99.99,,,-99.99,,2013-06-09 13:32:00,
2013-06-09 09:42:00,70.0,60.0,30.18,NW,306,0.0,2.0,71,-99.99,,,-99.99,,2013-06-09 13:42:00,
2013-06-09 09:52:00,70.0,60.0,30.18,NW,306,0.0,2.0,71,-99.99,,,-99.99,,2013-06-09 13:52:00,
2013-06-09 10:00:00,76.0,59.0,30.18,WNW,302,1.0,5.0,55,-99.99,,,-99.99,,2013-06-09 14:00:00,
2013-06-09 10:32:00,76.0,59.0,30.18,WNW,302,1.0,5.0,55,-99.99,,,-99.99,,2013-06-09 14:32:00,
2013-06-09 10:43:00,76.0,59.0,30.18,WNW,302,1.0,5.0,55,-99.99,,,-99.99,,2013-06-09 14:43:00,
2013-06-09 10:52:00,76.0,59.0,30.18,WNW,302,1.0,5.0,55,-99.99,,,-99.99,,2013-06-09 14:52:00,
2013-06-09 11:00:00,77.0,58.0,30.18,NE,43,5.0,6.0,51,-99.99,,,-99.99,,2013-06-09 15:00:00,
2013-06-09 11:22:00,77.0,58.0,30.18,NE,43,5.0,6.0,51,-99.99,,,-99.99,,2013-06-09 15:22:00,
2013-06-09 11:33:00,77.0,58.0,30.18,NE,43,5.0,6.0,51,-99.99,,,-99.99,,2013-06-09 15:33:00,
2013-06-09 11:44:00,77.0,58.0,30.18,NE,43,5.0,6.0,51,-99.99,,,-99.99,,2013-06-09 15:44:00,
2013-06-09 11:53:00,77.0,58.0,30.18,NE,43,5.0,6.0,51,-99.99,,,-99.99,,2013-06-09 15:53:00,
2013-06-09 12:00:00,78.0,56.0,30.18,NNW,337,5.0,10.0,46,-99.99,,,-99.99,,2013-06-09 16:00:00,
2013-06-09 12:23:00,78.0,56.0,30.18,NNW,337,5.0,10.0,46,-99.99,,,-99.99,,2013-06-09 16:23:00,
2013-06-09 12:33:00,78.0,56.0,30.18,NNW,337,5.0,10.0,46,-99.99,,,-99.99,,2013-06-09 16:33:00,
2013-06-09 12:43:00,78.0,56.0,30.18,NNW,337,5.0,10.0,46,-99.99,,,-99.99,,2013-06-09 16:43:00,
2013-06-09 12:53:00,78.0,56.0,30.18,NNW,337,5.0,10.0,46,-99.99,,,-99.99,,2013-06-09 16:53:00,
2013-06-09 13:00:00,80.0,59.0,30.15,NW,312,4.0,11.0,50,-99.99,,,-99.99,,2013-06-09 17:00:00,
2013-06-09 13:22:00,80.0,59.0,30.15,NW,312,4.0,11.0,50,-99.99,,,-99.99,,2013-06-09 17:22:00,
2013-06-09 13:32:00,80.0,59.0,30.15,NW,312,4.0,11.0,50,-99.99,,,-99.99,,2013-06-09 17:32:00,
2013-06-09 13:42:00,80.0,59.0,30.15,NW,312,4.0,11.0,50,-99.99,,,-99.99,,2013-06-09 17:42:00,
2013-06-09 13:52:00,80.0,59.0,30.15,NW,312,4.0,11.0,50,-99.99,,,-99.99,,2013-06-09 17:52:00,
2013-06-09 14:00:00,81.0,57.0,30.15,WNW,300,4.0,12.0,44,-99.99,,,-99.99,,2013-06-09 18:00:00,
2013-06-09 14:22:00,81.0,57.0,30.15,WNW,300,4.0,12.0,44,-99.99,,,-99.99,,2013-06-09 18:22:00,
2013-06-09 14:33:00,81.0,57.0,30.15,WNW,300,4.0,12.0,44,-99.99,,,-99.99,,2013-06-09 18:33:00,
2013-06-09 14:42:00,81.0,57.0,30.15,WNW,300,4.0,12.0,44,-99.99,,,-99.99,,2013-06-09 18:42:00,
2013-06-09 14:52:00,81.0,57.0,30.15,WNW,300,4.0,12.0,44,-99.99,,,-99.99,,2013-06-09 18:52:00,
2013-06-09 15:00:00,82.0,59.0,30.12,SSW,204,6.0,14.0,47,-99.99,,,-99.99,,2013-06-09 19:00:00,
2013-06-09 15:22:00,82.0,59.0,30.12,SSW,204,6.0,14.0,47,-99.99,,,-99.99,,2013-06-09 19:22:00,
2013-06-09 15:32:00,82.0,59.0,30.12,SSW,204,6.0,14.0,47,-99.99,,,-99.99,,2013-06-09 19:32:00,
2013-06-09 15:43:00,82.0,59.0,30.12,SSW,204,6.0,14.0,47,-99.99,,,-99.99,,2013-06-09 19:43:00,
2013-06-09 15:52:00,82.0,59.0,30.12,SSW,204,6.0,14.0,47,-99.99,,,-99.99,,2013-06-09 19:52:00,
2013-06-09 16:00:00,82.0,62.0,30.12,South,182,5.0,17.0,51,-99.99,,,-99.99,,2013-06-09 20:00:00,
2013-06-09 16:32:00,82.0,62.0,30.12,South,182,5.0,17.0,51,-99.99,,,-99.99,,2013-06-09 20:32:00,
2013-06-09 16:42:00,82.0,62.0,30.12,South,182,5.0,17.0,51,-99.99,,,-99.99,,2013-06-09 20:42:00,
2013-06-09 16:52:00,82.0,62.0,30.12,South,182,5.0,17.0,51,-99.99,,,-99.99,,2013-06-09 20:52:00,
2013-06-09 17:00:00,81.0,62.0,30.12,SW,236,4.0,13.0,52,-99.99,,,-99.99,,2013-06-09 21:00:00,
2013-06-09 17:22:00,81.0,62.0,30.12,SW,236,4.0,13.0,52,-99.99,,,-99.99,,2013-06-09 21:22:00,
2013-06-09 17:33:00,81.0,62.0,30.12,SW,236,4.0,13.0,52,-99.99,,,-99.99,,2013-06-09 21:33:00,
2013-06-09 17:44:00,81.0,62.0,30.12,SW,236,4.0,13.0,52,-99.99,,,-99.99,,2013-06-09 21:44:00,
2013-06-09 17:53:00,81.0,62.0,30.12,SW,236,4.0,13.0,52,-99.99,,,-99.99,,2013-06-09 21:53:00,
2013-06-09 18:00:00,81.0,63.0,30.12,SSW,208,9.0,15.0,55,-99.99,,,-99.99,,2013-06-09 22:00:00,
2013-06-09 18:23:00,81.0,63.0,30.12,SSW,208,9.0,15.0,55,-99.99,,,-99.99,,2013-06-09 22:23:00,
2013-06-09 18:33:00,81.0,63.0,30.12,SSW,208,9.0,15.0,55,-99.99,,,-99.99,,2013-06-09 22:33:00,
2013-06-09 18:42:00,81.0,63.0,30.12,SSW,208,9.0,15.0,55,-99.99,,,-99.99,,2013-06-09 22:42:00,
2013-06-09 18:52:00,81.0,63.0,30.12,SSW,208,9.0,15.0,55,-99.99,,,-99.99,,2013-06-09 22:52:00,
2013-06-09 19:00:00,79.0,64.0,30.12,SW,216,4.0,12.0,60,-99.99,,,-99.99,,2013-06-09 23:00:00,
2013-06-09 19:22:00,79.0,64.0,30.12,SW,216,4.0,12.0,60,-99.99,,,-99.99,,2013-06-09 23:22:00,
2013-06-09 19:32:00,79.0,64.0,30.12,SW,216,4.0,12.0,60,-99.99,,,-99.99,,2013-06-09 23:32:00,
2013-06-09 19:43:00,79.0,64.0,30.12,SW,216,4.0,12.0,60,-99.99,,,-99.99,,2013-06-09 23:43:00,
2013-06-09 19:52:00,79.0,64.0,30.12,SW,216,4.0,12.0,60,-99.99,,,-99.99,,2013-06-09 23:52:00,
2013-06-09 20:00:00,75.0,63.0,30.12,SW,220,5.0,10.0,68,-99.99,,,-99.99,,2013-06-10 00:00:00,
2013-06-09 20:22:00,75.0,63.0,30.12,SW,220,5.0,10.0,68,-99.99,,,-99.99,,2013-06-10 00:22:00,
2013-06-09 20:32:00,75.0,63.0,30.12,SW,220,5.0,10.0,68,-99.99,,,-99.99,,2013-06-10 00:32:00,
2013-06-09 20:42:00,75.0,63.0,30.12,SW,220,5.0,10.0,68,-99.99,,,-99.99,,2013-06-10 00:42:00,
2013-06-09 20:52:00,75.0,63.0,30.12,SW,220,5.0,10.0,68,-99.99,,,-99.99,,2013-06-10 00:52:00,
2013-06-09 21:00:00,72.0,64.0,30.15,SSW,211,4.0,8.0,75,-99.99,,,-99.99,,2013-06-10 01:00:00,
2013-06-09 21:22:00,72.0,64.0,30.15,SSW,211,4.0,8.0,75,-99.99,,,-99.99,,2013-06-10 01:22:00,
2013-06-09 21:32:00,72.0,64.0,30.15,SSW,211,4.0,8.0,75,-99.99,,,-99.99,,2013-06-10 01:32:00,
2013-06-09 21:43:00,72.0,64.0,30.15,SSW,211,4.0,8.0,75,-99.99,,,-99.99,,2013-06-10 01:43:00,
2013-06-09 21:52:00,72.0,64.0,30.15,SSW,211,4.0,8.0,75,-99.99,,,-99.99,,2013-06-10 01:52:00,
2013-06-09 22:00:00,69.0,62.0,30.18,South,180,5.0,7.0,79,-99.99,,,-99.99,,2013-06-10 02:00:00,
2013-06-09 22:32:00,69.0,62.0,30.18,South,180,5.0,7.0,79,-99.99,,,-99.99,,2013-06-10 02:32:00,
2013-06-09 22:42:00,69.0,62.0,30.18,South,180,5.0,7.0,79,-99.99,,,-99.99,,2013-06-10 02:42:00,
2013-06-09 22:52:00,69.0,62.0,30.18,South,180,5.0,7.0,79,-99.99,,,-99.99,,2013-06-10 02:52:00,
2013-06-09 23:00:00,67.0,62.0,30.18,SSE,168,6.0,7.0,83,-99.99,,,-99.99,,2013-06-10 03:00:00,
2013-06-09 23:33:00,67.0,62.0,30.18,SSE,168,6.0,7.0,83,-99.99,,,-99.99,,2013-06-10 03:33:00,
2013-06-09 23:43:00,67.0,62.0,30.18,SSE,168,6.0,7.0,83,-99.99,,,-99.99,,2013-06-10 03:43:00,
2013-06-09 23:53:00,67.0,62.0,30.18,SSE,168,6.0,7.0,83,-99.99,,,-99.99,,2013-06-10 03:53:00,